Preview of NWS' New Version of Forecast
This preview is not operational and should not be used for support decisions.

Regional Weather Roundup (RWR)

Issued by National Weather Service (NWS)

                            
000
ASUS43 KLSX 211857
RWRMO 

WEATHER SUMMARY FOR MISSOURI
NATIONAL WEATHER SERVICE SPRINGFIELD MO
200 PM CDT SUN APR 21 2019

NOTE: "FAIR" INDICATES FEW OR NO CLOUDS BELOW 12,000 FEET WITH NO
       SIGNIFICANT WEATHER AND/OR OBSTRUCTIONS TO VISIBILITY.
       CURRENT SKY AND/OR WEATHER CONDITIONS ARE NOT AVAILABLE FOR
       CHILLICOTHE AND FARMINGTON.

MOZ001>031-035>038-043-044-053-054-212000-
...NORTHERN AND WESTERN MISSOURI...
  
CITY           SKY/WX    TMP DP  RH WIND       PRES   REMARKS
KANSAS CTY INT MOSUNNY   83  50  31 S28G37    29.79F                  
LEE'S SUMMIT   SUNNY     82  48  30 S26G40    29.83S                  
ST JOSEPH      SUNNY     86  51  29 S24G37    29.75F                  
CHILLICOTHE      N/A     77  51  40 SE8       29.84F                  
     
$$
MOZ066>068-077>081-088>096-101>105-212000-
...SOUTHWEST MISSOURI...
  
CITY           SKY/WX    TMP DP  RH WIND       PRES   REMARKS
SPRINGFIELD    SUNNY     80  50  34 S16G25    29.94F                  
JOPLIN         SUNNY     80  51  36 S23G30    29.89F                  
BRANSON        MOSUNNY   81  43  26 S15G21    29.99F                  
               
$$
MOZ032>034-039>042-045>050-055>058-069>072-212000-
...CENTRAL MISSOURI...  
  
CITY           SKY/WX    TMP DP  RH WIND       PRES   REMARKS
COLUMBIA       NOT AVBL                                               
JEFFERSON CITY SUNNY     82  45  27 S14G26    29.93F                  
ROLLA          SUNNY     80  45  28 S10G28    29.98F                  
SEDALIA        SUNNY     80  45  28 S25G36    29.89F                  
WARRENSBURG    SUNNY     81  43  26 S23G30    29.85F                  
               
$$
MOZ051-052-059>065-212000-
...EAST CENTRAL MISSOURI...
  
CITY           SKY/WX    TMP DP  RH WIND       PRES   REMARKS
ST LOUIS INTL  MOSUNNY   78  41  26 SE13G23   30.01F                  
                   
$$
MOZ072>076-082>087-097>100-106>115-212000-
...SOUTH CENTRAL AND SOUTHEAST MISSOURI...
  
CITY           SKY/WX    TMP DP  RH WIND       PRES   REMARKS
CAPE GIRARDEAU FAIR      75  45  34 S9        30.06F                  
POPLAR BLUFF   FAIR      75  49  39 S7        30.05F                  
WEST PLAINS    SUNNY     79  44  28 S12G22    30.03F                  
                                       
$$